This is the latest recevied weather packets stored in our database for station/object N1HRK. If no packets are shown the sender has not sent any weather packets the latest 10 day(s).
| Time | Temp. | Humidity | Pressure | Rain* | Wind** | Luminosity | Snow |
|---|---|---|---|---|---|---|---|
| 1777409353 | 16.11° C | 40% | 1018.4 hPa | 0 mm | - | - | - |
| 1777409179 | 15.56° C | 40% | 1018.4 hPa | 0 mm | - | - | - |
| 1777408754 | 16.67° C | 40% | 1018.4 hPa | 0 mm | - | - | - |
| 1777408579 | 16.11° C | 39% | 1018.4 hPa | 0 mm | - | - | - |
| 1777408153 | 16.67° C | 39% | 1018.6 hPa | 0 mm | - | - | - |
| 1777407980 | 16.11° C | 39% | 1018.6 hPa | 0 mm | - | - | - |
| 1777407553 | 16.67° C | 39% | 1018.7 hPa | 0 mm | - | - | - |
| 1777407380 | 17.22° C | 39% | 1018.8 hPa | 0 mm | - | - | - |
| 1777406952 | 17.22° C | 40% | 1018.8 hPa | 0 mm | - | - | - |
| 1777406780 | 16.67° C | 38% | 1018.9 hPa | 0 mm | - | - | - |
| 1777406353 | 17.22° C | 39% | 1018.8 hPa | 0 mm | - | - | - |
| 1777406180 | 16.67° C | 40% | 1018.8 hPa | 0 mm | - | - | - |
| 1777405754 | 16.67° C | 38% | 1019 hPa | 0 mm | - | - | - |
| 1777405580 | 17.22° C | 40% | 1019 hPa | 0 mm | - | - | - |
| 1777405153 | 17.22° C | 40% | 1019 hPa | 0 mm | - | - | - |
| 1777404980 | 16.67° C | 40% | 1019 hPa | 0 mm | - | - | - |
| 1777404552 | 17.22° C | 41% | 1019.1 hPa | 0 mm | - | - | - |
| 1777404378 | 17.22° C | 40% | 1019.2 hPa | 0 mm | - | - | - |
| 1777403953 | 16.67° C | 41% | 1019.2 hPa | 0 mm | - | - | - |
| 1777403779 | 16.67° C | 40% | 1019.2 hPa | 0 mm | - | - | - |
| 1777403353 | 16.67° C | 42% | 1019.2 hPa | 0 mm | - | - | - |
| 1777403179 | 16.67° C | 42% | 1019.3 hPa | 0 mm | - | - | - |
| 1777402753 | 17.22° C | 42% | 1019.3 hPa | 0 mm | - | - | - |
| 1777402579 | 17.22° C | 42% | 1019.2 hPa | 0 mm | - | - | - |
| 1777402154 | 17.22° C | 42% | 1019.3 hPa | 0 mm | - | - | - |
* Rain latest hour (hover to see other rain measurements)
** Current wind speed in m/s (hover to see current wind gust speed)